| time (UTC) | temp C | wind direction | speed KPH | gust KPH | rain 1hr cm | rain 24hr cm | rain mn cm | humidity % | barometer mb |
| 20260903130049 | 18 | 158 | 1.6 | 14.5 | 0.00 | 0.00 | 0.00 | 85 | 1021.4 |
| 20260903124548 | 18 | 172 | 4.8 | 14.5 | 0.00 | 0.00 | 0.00 | 85 | 1021.3 |
| 20260903123044 | 18 | 129 | 4.8 | 14.5 | 0.00 | 0.00 | 0.00 | 85 | 1021.5 |
| 20260903121550 | 18 | 200 | 3.2 | 12.9 | 0.00 | 0.00 | 0.00 | 85 | 1021.5 |
| 20260903120056 | 18 | 174 | 1.6 | 9.7 | 0.00 | 0.00 | 0.00 | 85 | 1021.7 |
| 20260903114557 | 18 | 208 | 4.8 | 12.9 | 0.00 | 0.00 | 0.00 | 85 | 1021.8 |
| 20260903113040 | 18 | 183 | 6.4 | 14.5 | 0.00 | 0.00 | 0.00 | 84 | 1021.9 |
| 20260903111538 | 18 | 148 | 1.6 | 11.3 | 0.00 | 0.00 | 0.00 | 85 | 1021.8 |
| 20260903110037 | 18 | 149 | 1.6 | 11.3 | 0.00 | 0.00 | 0.00 | 85 | 1021.8 |
| 20260903104538 | 18 | 224 | 6.4 | 11.3 | 0.00 | 0.00 | 0.00 | 85 | 1021.8 |
| 20260903103037 | 18 | 129 | 3.2 | 11.3 | 0.00 | 0.00 | 0.00 | 84 | 1021.9 |
| 20260903101538 | 18 | 196 | 3.2 | 11.3 | 0.00 | 0.00 | 0.00 | 84 | 1021.7 |
| 20260903100044 | 18 | 181 | 3.2 | 9.7 | 0.00 | 0.00 | 0.00 | 83 | 1021.7 |
| 20260903094537 | 18 | 169 | 3.2 | 12.9 | 0.00 | 0.00 | 0.00 | 83 | 1021.7 |
| 20260903093034 | 18 | 193 | 3.2 | 8.0 | 0.00 | 0.00 | 0.00 | 83 | 1021.7 |
| 20260903091532 | 18 | 180 | 1.6 | 8.0 | 0.00 | 0.00 | 0.00 | 83 | 1021.8 |
| 20260903090033 | 18 | 189 | 1.6 | 11.3 | 0.00 | 0.00 | 0.00 | 82 | 1021.9 |
| 20260903084532 | 18 | 234 | 3.2 | 9.7 | 0.00 | 0.03 | 0.00 | 83 | 1021.9 |
| 20260903083041 | 18 | 248 | 3.2 | 11.3 | 0.00 | 0.03 | 0.00 | 83 | 1021.9 |
| 20260903081530 | 18 | 219 | 3.2 | 9.7 | 0.00 | 0.03 | 0.00 | 82 | 1021.8 |
| 20260903080028 | 18 | 207 | 1.6 | 9.7 | 0.00 | 0.03 | 0.00 | 83 | 1021.9 |
| 20260903074528 | 18 | 195 | 3.2 | 12.9 | 0.00 | 0.03 | 0.00 | 84 | 1022.0 |
| 20260903073027 | 18 | 236 | 3.2 | 0.0 | 0.00 | 0.00 | 0.00 | 84 | 1022.1 |
| 20260903071529 | 18 | 250 | 1.6 | 11.3 | 0.00 | 0.03 | 0.00 | 84 | 1022.1 |
| 20260903070025 | 18 | 177 | 3.2 | 8.0 | 0.00 | 0.03 | 0.00 | 85 | 1022.0 |
| 20260903064525 | 18 | 218 | 3.2 | 11.3 | 0.00 | 0.03 | 0.00 | 84 | 1022.2 |
| 20260903063024 | 18 | 179 | 3.2 | 9.7 | 0.00 | 0.03 | 0.00 | 85 | 1022.1 |
| 20260903061539 | 18 | 145 | 4.8 | 14.5 | 0.00 | 0.03 | 0.00 | 84 | 1022.0 |
| 20260903060023 | 18 | 130 | 3.2 | 14.5 | 0.00 | 0.03 | 0.00 | 85 | 1022.1 |
| 20260903054523 | 18 | 205 | 3.2 | 11.3 | 0.00 | 0.03 | 0.00 | 85 | 1021.9 |
| 20260903053022 | 18 | 190 | 3.2 | 11.3 | 0.00 | 0.03 | 0.00 | 85 | 1021.8 |
| 20260903051519 | 18 | 255 | 0.0 | 9.7 | 0.00 | 0.03 | 0.00 | 85 | 1022.0 |
| 20260903050019 | 18 | 221 | 1.6 | 6.4 | 0.00 | 0.03 | 0.00 | 85 | 1022.1 |
| 20260903044518 | 18 | 248 | 1.6 | 6.4 | 0.00 | 0.03 | 0.00 | 85 | 1022.2 |
| 20260903043018 | 18 | 233 | 1.6 | 4.8 | 0.00 | 0.03 | 0.00 | 84 | 1022.3 |
| 20260903041528 | 18 | 224 | 1.6 | 6.4 | 0.00 | 0.03 | 0.00 | 85 | 1022.3 |
| 20260903040018 | 18 | 178 | 1.6 | 6.4 | 0.00 | 0.03 | 0.00 | 85 | 1022.4 |
| 20260903034515 | 18 | 216 | 6.4 | 9.7 | 0.00 | 0.03 | 0.00 | 84 | 1022.5 |
| 20260903033016 | 18 | 224 | 1.6 | 8.0 | 0.00 | 0.03 | 0.00 | 85 | 1022.4 |
| 20260903031520 | 18 | 186 | 1.6 | 8.0 | 0.00 | 0.03 | 0.00 | 86 | 1022.1 |
| 20260903030012 | 18 | 197 | 1.6 | 6.4 | 0.00 | 0.03 | 0.00 | 86 | 1022.1 |
| 20260903024508 | 18 | 167 | 1.6 | 9.7 | 0.00 | 0.03 | 0.03 | 87 | 1022.0 |
| 20260903023009 | 18 | 167 | 1.6 | 11.3 | 0.00 | 0.03 | 0.03 | 87 | 1022.2 |
| 20260903021507 | 18 | 224 | 1.6 | 6.4 | 0.00 | 0.03 | 0.03 | 87 | 1022.1 |
| 20260903020024 | 18 | 217 | 1.6 | 9.7 | 0.00 | 0.03 | 0.03 | 88 | 1022.3 |
| 20260903014506 | 18 | 210 | 1.6 | 6.4 | 0.00 | 0.03 | 0.03 | 89 | 1022.2 |
| 20260903013006 | 18 | 233 | 1.6 | 4.8 | 0.00 | 0.03 | 0.03 | 89 | 1022.5 |
| 20260903011505 | 17 | 206 | 0.0 | 4.8 | 0.00 | 0.03 | 0.03 | 88 | 1022.6 |
| 20260903010009 | 18 | 226 | 0.0 | 4.8 | 0.00 | 0.03 | 0.03 | 88 | 1022.8 |
| 20260903004506 | 18 | 234 | 0.0 | 4.8 | 0.00 | 0.03 | 0.03 | 88 | 1022.7 |
| 20260903003004 | 17 | 230 | 1.6 | 6.4 | 0.00 | 0.03 | 0.03 | 88 | 1022.8 |
| 20260903001505 | 18 | 184 | 1.6 | 8.0 | 0.00 | 0.03 | 0.03 | 88 | 1022.6 |
| 20260903000003 | 18 | 268 | 1.6 | 6.4 | 0.00 | 0.03 | 0.03 | 88 | 1022.5 |
| 20260902234503 | 18 | 236 | 1.6 | 6.4 | 0.00 | 0.03 | 0.03 | 88 | 1022.5 |
| 20260902233003 | 18 | 259 | 1.6 | 6.4 | 0.00 | 0.03 | 0.03 | 87 | 1022.5 |
| 20260902231502 | 18 | 200 | 1.6 | 6.4 | 0.00 | 0.03 | 0.03 | 86 | 1022.3 |
| 20260902230001 | 18 | 224 | 1.6 | 6.4 | 0.00 | 0.03 | 0.03 | 85 | 1022.4 |
| 20260902224501 | 18 | 226 | 3.2 | 6.4 | 0.00 | 0.03 | 0.03 | 86 | 1022.4 |
| 20260902223002 | 18 | 148 | 0.0 | 6.4 | 0.00 | 0.03 | 0.03 | 85 | 1022.2 |
| 20260902221600 | 18 | 159 | 0.0 | 6.4 | 0.00 | 0.03 | 0.03 | 85 | 1022.2 |
| 20260902220108 | 18 | 155 | 0.0 | 9.7 | 0.00 | 0.03 | 0.03 | 85 | 1022.4 |
| 20260902214559 | 18 | 158 | 0.0 | 1.6 | 0.00 | 0.03 | 0.03 | 85 | 1022.4 |
| 20260902213101 | 18 | 148 | 4.8 | 9.7 | 0.00 | 0.03 | 0.03 | 84 | 1022.5 |
| 20260902211600 | 19 | 176 | 0.0 | 6.4 | 0.00 | 0.03 | 0.03 | 83 | 1022.6 |
| 20260902210058 | 19 | 198 | 4.8 | 8.0 | 0.00 | 0.03 | 0.03 | 83 | 1022.9 |
| 20260902204558 | 19 | 148 | 1.6 | 6.4 | 0.00 | 0.03 | 0.03 | 84 | 1022.9 |
| 20260902203100 | 19 | 202 | 3.2 | 9.7 | 0.00 | 0.03 | 0.03 | 83 | 1023.0 |
| 20260902201600 | 20 | 156 | 4.8 | 8.0 | 0.00 | 0.03 | 0.03 | 82 | 1022.9 |
| 20260902200056 | 20 | 162 | 6.4 | 11.3 | 0.00 | 0.03 | 0.03 | 81 | 1022.9 |
| 20260902194600 | 20 | 184 | 4.8 | 11.3 | 0.00 | 0.03 | 0.03 | 83 | 1022.9 |
| 20260902193055 | 20 | 165 | 3.2 | 9.7 | 0.00 | 0.03 | 0.03 | 83 | 1022.9 |
| 20260902191554 | 20 | 174 | 4.8 | 11.3 | 0.00 | 0.03 | 0.03 | 80 | 1022.9 |
| 20260902190054 | 21 | 198 | 8.0 | 12.9 | 0.00 | 0.03 | 0.03 | 81 | 1022.9 |
| 20260902184553 | 21 | 154 | 4.8 | 14.5 | 0.00 | 0.03 | 0.03 | 81 | 1022.8 |
| 20260902183052 | 21 | 191 | 6.4 | 12.9 | 0.00 | 0.03 | 0.03 | 80 | 1022.7 |
| 20260902181552 | 22 | 152 | 0.0 | 3.2 | 0.00 | 0.03 | 0.03 | 76 | 1022.8 |
| 20260902180056 | 22 | 169 | 0.0 | 1.6 | 0.00 | 0.03 | 0.03 | 76 | 1022.7 |
| 20260902174551 | 22 | 98 | 0.0 | 1.6 | 0.00 | 0.03 | 0.03 | 73 | 1022.8 |
| 20260902173049 | 22 | 124 | 0.0 | 1.6 | 0.00 | 0.03 | 0.03 | 74 | 1022.8 |
| 20260902171549 | 22 | 117 | 0.0 | 3.2 | 0.00 | 0.03 | 0.03 | 77 | 1022.8 |
| 20260902170046 | 22 | 153 | 0.0 | 3.2 | 0.00 | 0.03 | 0.03 | 78 | 1022.7 |
| 20260902164543 | 22 | 128 | 0.0 | 4.8 | 0.00 | 0.03 | 0.03 | 79 | 1022.6 |
| 20260902163044 | 21 | 106 | 0.0 | 8.0 | 0.00 | 0.03 | 0.03 | 82 | 1022.4 |
| 20260902161542 | 21 | 120 | 3.2 | 9.7 | 0.00 | 0.03 | 0.03 | 82 | 1022.4 |
| 20260902160040 | 21 | 51 | 1.6 | 12.9 | 0.00 | 0.03 | 0.03 | 83 | 1022.6 |
| 20260902154537 | 21 | 205 | 1.6 | 11.3 | 0.00 | 0.03 | 0.03 | 84 | 1022.6 |
| 20260902153036 | 21 | 122 | 3.2 | 11.3 | 0.00 | 0.03 | 0.03 | 83 | 1022.6 |
| 20260902151540 | 21 | 117 | 1.6 | 11.3 | 0.00 | 0.03 | 0.03 | 83 | 1022.8 |
| 20260902150032 | 20 | 51 | 1.6 | 12.9 | 0.00 | 0.03 | 0.03 | 84 | 1022.8 |
| 20260902144529 | 20 | 83 | 4.8 | 11.3 | 0.00 | 0.03 | 0.03 | 84 | 1022.9 |
| 20260902143026 | 20 | 96 | 6.4 | 11.3 | 0.00 | 0.03 | 0.03 | 84 | 1022.9 |
| 20260902141530 | 19 | 83 | 4.8 | 11.3 | 0.00 | 0.03 | 0.03 | 84 | 1022.8 |
| 20260902140022 | 19 | 118 | 4.8 | 11.3 | 0.00 | 0.03 | 0.03 | 83 | 1022.8 |
| 20260902134529 | 19 | 115 | 4.8 | 11.3 | 0.00 | 0.03 | 0.03 | 83 | 1022.7 |
| 20260902133019 | 19 | 158 | 3.2 | 9.7 | 0.00 | 0.03 | 0.03 | 84 | 1022.7 |
| 20260902131515 | 19 | 61 | 3.2 | 9.7 | 0.00 | 0.03 | 0.03 | 85 | 1022.8 |